Home > Weather > Utsunomiya > Past weeks

Flag for Japan Weather for the Past 2 Weeks in Utsunomiya, Japan

Now
28 °F

Chilly.


Feels Like: 24 °F
Forecast: 17 / 41 °F
Wind: 3 mph from North

Location: Mito

Current Time: Feb 8, 2016 at 2:29:32 AM

Latest Report: Feb 8, 2016 at 1:00 AM


Visibility: N/A

Pressure: 30.15 "Hg

Humidity: 72%

Dew point: 20 °F

Location of UtsunomiyaLocation

Historic Weather in Utsunomiya — Graph

°F

Utsunomiya Temperature Yesterday

Maximum temperature yesterday: 42 °F (at 3:00 PM)
Minimum temperature yesterday: 31 °F (at 11:00 PM)
Average temperature yesterday: 37 °F

High & Low Weather Summary for the Past Weeks

 TemperatureHumidityPressure
High55 °F (Jan 28, 3:00 PM)97% (Jan 30, 12:00 AM)30.33 "Hg (Jan 30, 12:00 AM)
Low24 °F (Jan 26, 5:00 AM)23% (Jan 28, 2:00 PM)29.50 "Hg (Jan 24, 12:00 PM)
Average37 °F67%30.07 "Hg
* Reported Jan 24 1:00 AM — Feb 8 1:00 AM, Utsunomiya, Weather by CustomWeather, © 2016

Note: Actual official high and low records may vary slightly from our data, if they occured in-between our weather recording intervals... More about our weather records

Advertising

Utsunomiya Weather History for the Previous 24 Hours

 ConditionsComfort  
Time TempWeatherWind HumidityBarometerVisibility
1:00 AM
Mon, Feb 8
28 °FChilly.3 mph72%30.15 "HgN/A
12:00 AM29 °FChilly.5 mph72%30.15 "HgN/A
11:00 PM
Sun, Feb 7
31 °FChilly.2 mph62%30.15 "HgN/A
10:00 PM33 °FChilly.1 mph51%30.15 "HgN/A
9:00 PM34 °FClear.1 mph53%30.13 "Hg12 mi
8:00 PM34 °FChilly.3 mph54%30.11 "HgN/A
7:00 PM35 °FChilly.5 mph58%30.09 "HgN/A
6:00 PM40 °FChilly.3 mph50%30.07 "HgN/A
5:00 PM40 °FQuite cool.6 mph49%30.06 "HgN/A
4:00 PM41 °FQuite cool.7 mph47%30.03 "HgN/A
3:00 PM42 °FScattered clouds.6 mph45%30.01 "Hg19 mi
2:00 PM41 °FQuite cool.3 mph44%29.99 "HgN/A
1:00 PM40 °FQuite cool.7 mph46%29.98 "HgN/A
5:00 AM35 °FChilly.3 mph58%29.91 "HgN/A
4:00 AM36 °FChilly.6 mph57%29.90 "HgN/A
3:00 AM36 °FOvercast.7 mph62%29.90 "Hg9 mi
2:00 AM37 °FChilly.7 mph62%29.92 "HgN/A
Weather by CustomWeather, © 2016

See weather overviewHow to use our weather pages